TimeCDT,TemperatureF,Dew PointF,Humidity,Sea Level PressureIn,VisibilityMPH,Wind Direction,Wind SpeedMPH,Gust SpeedMPH,PrecipitationIn,Events,Conditions,WindDirDegrees,DateUTC
12:15 AM,53.6,35.6,51,29.76,10.0,South,9.2,-,N/A,,Clear,170,2012-10-21 05:15:00
12:35 AM,51.8,35.6,54,29.76,10.0,South,6.9,-,N/A,,Clear,170,2012-10-21 05:35:00
12:55 AM,51.8,35.6,54,29.75,10.0,South,11.5,-,N/A,,Clear,180,2012-10-21 05:55:00
1:15 AM,51.8,35.6,54,29.75,10.0,South,8.1,-,N/A,,Clear,180,2012-10-21 06:15:00
1:35 AM,50.0,35.6,58,29.74,10.0,South,9.2,-,N/A,,Clear,190,2012-10-21 06:35:00
1:55 AM,51.8,35.6,54,29.74,10.0,South,10.4,-,N/A,,Clear,190,2012-10-21 06:55:00
2:15 AM,50.0,35.6,58,29.74,10.0,South,8.1,-,N/A,,Clear,190,2012-10-21 07:15:00
2:35 AM,50.0,35.6,58,29.74,10.0,South,10.4,-,N/A,,Clear,190,2012-10-21 07:35:00
2:55 AM,50.0,33.8,54,29.73,10.0,South,11.5,-,N/A,,Clear,190,2012-10-21 07:55:00
3:15 AM,51.8,33.8,50,29.73,10.0,SSW,10.4,-,N/A,,Clear,200,2012-10-21 08:15:00
3:55 AM,59.0,32.0,36,29.73,10.0,SW,13.8,-,N/A,,Clear,220,2012-10-21 08:55:00
4:15 AM,60.8,30.2,31,29.72,10.0,SW,15.0,-,N/A,,Clear,220,2012-10-21 09:15:00
4:35 AM,60.8,30.2,31,29.72,10.0,SW,13.8,-,N/A,,Clear,230,2012-10-21 09:35:00
4:55 AM,59.0,30.2,34,29.73,10.0,SW,11.5,-,N/A,,Clear,230,2012-10-21 09:55:00
5:15 AM,60.8,28.4,29,29.73,10.0,SW,11.5,-,N/A,,Clear,230,2012-10-21 10:15:00
5:35 AM,62.6,28.4,27,29.73,10.0,WSW,8.1,-,N/A,,Clear,240,2012-10-21 10:35:00
5:55 AM,60.8,28.4,29,29.73,10.0,WSW,5.8,-,N/A,,Clear,240,2012-10-21 10:55:00
6:15 AM,60.8,28.4,29,29.73,10.0,WSW,3.5,-,N/A,,Clear,250,2012-10-21 11:15:00
6:35 AM,55.4,30.2,38,29.73,10.0,WSW,8.1,-,N/A,,Clear,240,2012-10-21 11:35:00
6:55 AM,55.4,32.0,41,29.74,10.0,West,3.5,-,N/A,,Clear,270,2012-10-21 11:55:00
7:15 AM,57.2,32.0,38,29.74,10.0,West,4.6,-,N/A,,Clear,280,2012-10-21 12:15:00
7:35 AM,57.2,32.0,38,29.75,10.0,SW,11.5,-,N/A,,Clear,230,2012-10-21 12:35:00
7:55 AM,53.6,32.0,44,29.75,10.0,SW,10.4,-,N/A,,Clear,230,2012-10-21 12:55:00
8:15 AM,55.4,32.0,41,29.76,10.0,SW,10.4,-,N/A,,Clear,220,2012-10-21 13:15:00
8:35 AM,59.0,32.0,36,29.76,10.0,SW,12.7,-,N/A,,Clear,230,2012-10-21 13:35:00
8:55 AM,60.8,32.0,34,29.76,10.0,WSW,11.5,-,N/A,,Clear,240,2012-10-21 13:55:00
9:15 AM,62.6,32.0,32,29.78,10.0,WSW,12.7,-,N/A,,Clear,250,2012-10-21 14:15:00
9:55 AM,69.8,32.0,25,29.78,10.0,WSW,15.0,-,N/A,,Clear,240,2012-10-21 14:55:00
10:15 AM,71.6,32.0,23,29.78,10.0,West,16.1,-,N/A,,Clear,260,2012-10-21 15:15:00
10:35 AM,73.4,32.0,22,29.78,10.0,West,17.3,-,N/A,,Clear,270,2012-10-21 15:35:00
10:55 AM,73.4,32.0,22,29.78,10.0,West,15.0,20.7,N/A,,Clear,280,2012-10-21 15:55:00
11:15 AM,77.0,30.2,18,29.78,10.0,West,17.3,-,N/A,,Clear,270,2012-10-21 16:15:00
11:35 AM,78.8,26.6,15,29.77,10.0,West,18.4,21.9,N/A,,Clear,270,2012-10-21 16:35:00
11:55 AM,80.6,26.6,14,29.77,10.0,West,13.8,-,N/A,,Clear,280,2012-10-21 16:55:00
12:15 PM,82.4,26.6,13,29.77,10.0,West,15.0,-,N/A,,Clear,260,2012-10-21 17:15:00
12:35 PM,82.4,28.4,14,29.77,10.0,West,15.0,20.7,N/A,,Clear,270,2012-10-21 17:35:00
12:55 PM,84.2,26.6,12,29.77,10.0,West,17.3,-,N/A,,Clear,260,2012-10-21 17:55:00
1:15 PM,86.0,28.4,12,29.76,10.0,WSW,16.1,23.0,N/A,,Clear,250,2012-10-21 18:15:00
1:55 PM,86.0,28.4,12,29.76,10.0,West,18.4,27.6,N/A,,Clear,260,2012-10-21 18:55:00
2:15 PM,87.8,30.2,13,29.75,10.0,WSW,19.6,24.2,N/A,,Clear,250,2012-10-21 19:15:00
2:35 PM,87.8,32.0,14,29.74,10.0,WSW,18.4,26.5,N/A,,Clear,250,2012-10-21 19:35:00
2:55 PM,87.8,32.0,14,29.73,10.0,WSW,20.7,32.2,N/A,,Clear,240,2012-10-21 19:55:00
3:15 PM,87.8,30.2,13,29.73,10.0,WSW,19.6,29.9,N/A,,Clear,250,2012-10-21 20:15:00
3:55 PM,87.8,28.4,12,29.73,10.0,SW,20.7,29.9,N/A,,Clear,230,2012-10-21 20:55:00
4:15 PM,87.8,28.4,12,29.73,10.0,WSW,19.6,29.9,N/A,,Clear,240,2012-10-21 21:15:00
4:35 PM,87.8,30.2,13,29.73,10.0,WSW,19.6,32.2,N/A,,Clear,250,2012-10-21 21:35:00
4:55 PM,86.0,30.2,13,29.74,10.0,WSW,23.0,31.1,N/A,,Clear,240,2012-10-21 21:55:00
5:15 PM,86.0,30.2,13,29.74,10.0,WSW,20.7,31.1,N/A,,Clear,250,2012-10-21 22:15:00
5:35 PM,86.0,28.4,12,29.74,10.0,WSW,24.2,34.5,N/A,,Clear,240,2012-10-21 22:35:00
5:55 PM,82.4,28.4,14,29.75,10.0,WSW,21.9,34.5,N/A,,Clear,240,2012-10-21 22:55:00
6:15 PM,82.4,28.4,14,29.75,10.0,SW,20.7,26.5,N/A,,Clear,230,2012-10-21 23:15:00
6:35 PM,80.6,28.4,15,29.75,10.0,SW,17.3,24.2,N/A,,Clear,230,2012-10-21 23:35:00
6:55 PM,78.8,28.4,16,29.76,10.0,SW,16.1,20.7,N/A,,Clear,230,2012-10-21 23:55:00
7:15 PM,77.0,28.4,17,29.76,10.0,SW,16.1,-,N/A,,Clear,230,2012-10-22 00:15:00
7:35 PM,73.4,30.2,20,29.78,10.0,SW,13.8,-,N/A,,Clear,220,2012-10-22 00:35:00
7:55 PM,73.4,30.2,20,29.78,10.0,SW,15.0,-,N/A,,Clear,220,2012-10-22 00:55:00
8:15 PM,71.6,32.0,23,29.78,10.0,SSW,11.5,-,N/A,,Clear,210,2012-10-22 01:15:00
8:35 PM,69.8,32.0,25,29.79,10.0,SW,13.8,-,N/A,,Clear,220,2012-10-22 01:35:00
8:55 PM,69.8,32.0,25,29.79,10.0,SW,15.0,-,N/A,,Clear,220,2012-10-22 01:55:00
9:15 PM,69.8,32.0,25,29.80,10.0,SW,12.7,-,N/A,,Clear,220,2012-10-22 02:15:00
9:35 PM,68.0,32.0,26,29.80,10.0,SW,13.8,-,N/A,,Clear,220,2012-10-22 02:35:00
9:55 PM,64.4,32.0,30,29.81,10.0,SSW,16.1,-,N/A,,Clear,210,2012-10-22 02:55:00
10:15 PM,64.4,32.0,30,29.81,10.0,SW,13.8,-,N/A,,Clear,220,2012-10-22 03:15:00
10:55 PM,66.2,32.0,28,29.82,10.0,SW,17.3,-,N/A,,Clear,220,2012-10-22 03:55:00
11:15 PM,66.2,32.0,28,29.82,10.0,SW,16.1,21.9,N/A,,Clear,220,2012-10-22 04:15:00
11:35 PM,68.0,32.0,26,29.82,10.0,SW,16.1,-,N/A,,Clear,220,2012-10-22 04:35:00
11:55 PM,64.4,32.0,30,29.82,10.0,SW,15.0,-,N/A,,Clear,230,2012-10-22 04:55:00